PBO Station Position Time Series. Reference Frame : NAM14
Format Version,1.1.0
4-character ID,P578
Station name,DavisBenchCS2008
Begin Date, 2008-02-16
End Date, 2019-10-07
Release Date, 2019-10-08
Reference position, 35.6943316154 North Latitude, -120.2390318557 East Longitude, 536.27557 meters elevation,
Date, North (mm), East (mm), Vertical (mm), North Std. Deviation (mm), East Std. Deviation (mm),              Vertical Std. Deviation (mm), Quality,
2008-02-16,0.00, 0.00, 0.00, 1.93, 1.61, 7.37, repro,
2008-02-17,0.11, 1.29, -5.67, 1.95, 1.63, 7.46, repro,
2008-02-18,0.66, 0.34, 1.47, 1.93, 1.62, 7.38, repro,
2008-02-19,-0.61, 0.51, -5.66, 1.94, 1.62, 7.39, repro,
2008-02-20,-1.94, 3.34, -6.57, 1.95, 1.62, 7.44, repro,
2008-02-21,-0.67, -0.20, -1.52, 1.96, 1.66, 7.53, repro,
2008-02-22,-3.94, -0.94, 9.66, 1.95, 1.63, 7.48, repro,
2008-02-23,-0.67, 0.10, -1.45, 1.98, 1.67, 7.47, repro,
2008-02-24,-1.58, -0.04, 3.11, 1.99, 1.70, 7.62, repro,
2008-02-25,-0.14, 2.88, -6.31, 1.94, 1.63, 7.42, repro,
2008-02-26,0.45, 2.39, -11.84, 1.94, 1.62, 7.38, repro,
2008-02-27,-0.06, 1.31, -11.63, 1.97, 1.67, 7.64, repro,
2008-02-28,1.51, 1.34, -9.04, 1.99, 1.70, 7.77, repro,
2008-02-29,0.10, 1.43, -2.95, 2.00, 1.66, 7.65, repro,
2008-03-01,0.88, 0.31, -3.65, 1.97, 1.65, 7.58, repro,
2008-03-02,1.85, 0.57, -8.97, 2.02, 1.71, 7.88, repro,
2008-03-03,0.63, 0.96, -7.74, 1.94, 1.60, 7.38, repro,
2008-03-04,-0.01, 1.86, -8.82, 1.95, 1.62, 7.46, repro,
2008-03-05,2.53, 0.29, -7.70, 2.02, 1.74, 7.86, repro,
2008-03-06,1.36, -0.15, -1.42, 1.95, 1.61, 7.41, repro,
2008-03-07,-0.34, -0.03, -5.96, 1.94, 1.62, 7.40, repro,
2008-03-08,-0.46, 1.23, -3.18, 1.98, 1.64, 7.56, repro,
2008-03-09,0.97, 0.18, -9.69, 1.97, 1.66, 7.66, repro,
2008-03-10,0.14, 1.13, -11.41, 1.96, 1.62, 7.44, repro,
2008-03-11,1.09, 1.44, -7.26, 1.96, 1.64, 7.55, repro,
2008-03-12,1.93, -0.43, -6.22, 1.97, 1.66, 7.65, repro,
2008-03-13,1.66, 0.21, 2.00, 1.96, 1.67, 7.61, repro,
2008-03-14,-0.35, 1.71, -1.14, 1.97, 1.64, 7.58, repro,
2008-03-15,-0.41, 0.57, -10.28, 1.97, 1.65, 7.67, repro,
2008-03-16,0.08, -0.92, -6.56, 2.06, 1.75, 7.98, repro,
2008-03-17,0.75, -0.81, 0.15, 2.08, 1.80, 8.16, repro,
2008-03-18,0.57, 0.04, -6.32, 2.03, 1.72, 7.82, repro,
2008-03-19,-0.16, -0.62, -3.72, 1.97, 1.65, 7.52, repro,
2008-03-20,0.90, -0.55, -7.30, 2.01, 1.67, 7.64, repro,
2008-03-21,0.94, 0.06, -5.48, 1.98, 1.64, 7.53, repro,
2008-03-22,-0.03, -0.02, -5.83, 2.00, 1.66, 7.68, repro,
2008-03-23,0.27, -0.73, -6.84, 1.97, 1.65, 7.54, repro,
2008-03-24,1.68, 0.10, -3.88, 1.98, 1.66, 7.60, repro,
2008-03-25,1.25, -0.48, -1.69, 2.00, 1.68, 7.61, repro,
2008-03-26,-0.10, 0.13, -9.27, 1.98, 1.67, 7.50, repro,
2008-03-27,0.47, -0.49, -8.83, 2.04, 1.72, 7.67, repro,
2008-03-28,-0.02, -0.66, -3.43, 1.99, 1.64, 7.48, repro,
2008-03-29,0.58, 0.62, -1.18, 1.96, 1.62, 7.49, repro,
2008-03-30,0.42, -0.18, -2.52, 1.96, 1.61, 7.45, repro,
2008-03-31,0.16, 0.12, -2.77, 1.94, 1.61, 7.38, repro,
2008-04-01,1.33, 0.34, -4.24, 1.95, 1.60, 7.44, repro,
2008-04-02,-0.32, -0.75, -4.95, 2.03, 1.62, 7.68, repro,
2008-04-03,-0.03, 0.58, -4.30, 1.96, 1.62, 7.45, repro,
2008-04-04,0.33, 0.62, -4.59, 1.95, 1.61, 7.43, repro,
2008-04-05,1.01, -0.19, 2.45, 1.95, 1.61, 7.46, repro,
2008-04-06,-0.22, 0.08, -1.05, 1.95, 1.60, 7.46, repro,
2008-04-07,0.39, -0.23, -4.22, 1.96, 1.60, 7.45, repro,
2008-04-08,0.56, -0.53, -5.97, 1.96, 1.60, 7.42, repro,
2008-04-09,0.53, -0.50, -1.26, 1.96, 1.61, 7.48, repro,
2008-04-10,1.05, 1.16, -2.20, 1.96, 1.61, 7.49, repro,
2008-04-11,0.49, -0.18, 0.98, 1.95, 1.60, 7.41, repro,
2008-04-12,1.50, -0.05, -6.18, 1.97, 1.61, 7.52, repro,
2008-04-13,0.58, 0.03, -2.70, 1.95, 1.59, 7.35, repro,
2008-04-14,0.14, -0.42, -1.81, 1.95, 1.61, 7.43, repro,
2008-04-15,0.54, 0.21, -1.58, 2.00, 1.67, 7.63, repro,
2008-04-16,0.70, -0.76, -2.89, 1.99, 1.65, 7.53, repro,
2008-04-17,0.72, -0.20, -2.74, 1.96, 1.60, 7.43, repro,
2008-04-18,0.56, 0.50, -3.93, 1.96, 1.60, 7.46, repro,
2008-04-19,-1.92, -0.20, 0.63, 1.95, 1.59, 7.37, repro,
2008-04-20,0.34, 0.08, 2.59, 1.94, 1.59, 7.32, repro,
2008-04-21,-0.00, 0.24, -1.08, 1.95, 1.60, 7.37, repro,
2008-04-22,-0.77, 0.09, -3.53, 1.96, 1.59, 7.42, repro,
2008-04-23,0.12, -0.10, -5.55, 2.03, 1.67, 7.72, repro,
2008-04-24,0.81, 0.52, -4.59, 2.00, 1.63, 7.61, repro,
2008-04-25,1.63, 1.67, -9.90, 1.97, 1.59, 7.42, repro,
2008-04-26,0.28, 1.02, -6.61, 2.03, 1.61, 7.58, repro,
2008-04-27,-0.69, -0.17, -2.67, 2.05, 1.63, 7.68, repro,
2008-04-28,-1.69, -1.36, -0.77, 2.04, 1.62, 7.64, repro,
2008-04-29,-0.72, -0.98, 8.60, 2.11, 1.63, 7.82, repro,
2008-04-30,0.01, 0.56, -2.30, 2.06, 1.66, 7.67, repro,
2008-05-01,0.98, 1.58, -2.41, 2.03, 1.65, 7.69, repro,
2008-05-02,0.37, -0.03, -0.88, 2.05, 1.66, 7.65, repro,
2008-05-03,-0.73, -0.84, -2.63, 2.06, 1.69, 7.72, repro,
2008-05-04,-0.21, 1.18, -0.77, 1.99, 1.60, 7.47, repro,
2008-05-05,-0.89, 0.61, -5.05, 2.03, 1.64, 7.63, repro,
2008-05-06,-0.73, 0.73, -3.81, 2.02, 1.64, 7.57, repro,
2008-05-07,0.50, -1.61, 6.63, 2.02, 1.64, 7.61, repro,
2008-05-08,-0.42, -0.52, -0.73, 2.18, 1.75, 8.14, repro,
2008-05-09,-1.54, 0.52, -1.24, 2.02, 1.63, 7.60, repro,
2008-05-10,-0.58, 0.86, -3.25, 2.04, 1.65, 7.70, repro,
2008-05-11,-0.21, 0.86, -0.67, 2.01, 1.64, 7.66, repro,
2008-05-12,-0.85, 0.01, 8.82, 2.01, 1.64, 7.56, repro,
2008-05-13,0.17, -0.31, 3.27, 2.00, 1.61, 7.52, repro,
2008-05-14,-0.47, 1.32, -0.91, 1.99, 1.60, 7.50, repro,
2008-05-15,-0.48, 1.24, -5.13, 1.99, 1.60, 7.52, repro,
2008-05-16,0.05, 1.81, -6.84, 2.01, 1.61, 7.51, repro,
2008-05-17,-0.31, 1.75, 2.46, 2.04, 1.65, 7.73, repro,
2008-05-18,-0.07, 0.96, 6.87, 2.04, 1.66, 7.74, repro,
2008-05-19,-0.94, 1.06, -1.78, 1.97, 1.61, 7.53, repro,
2008-05-20,-0.34, 0.21, -2.47, 1.96, 1.59, 7.43, repro,
2008-05-21,-0.04, 1.63, 4.95, 1.99, 1.61, 7.60, repro,
2008-05-22,0.35, 2.22, 6.76, 1.99, 1.67, 7.70, repro,
2008-05-23,0.33, 1.12, 7.45, 2.01, 1.66, 7.76, repro,
2008-05-24,0.11, -0.12, 1.83, 1.99, 1.62, 7.57, repro,
2008-05-25,-0.26, 0.59, 4.34, 1.98, 1.60, 7.51, repro,
2008-05-26,-0.49, 1.49, -3.24, 2.00, 1.64, 7.66, repro,
2008-05-27,0.47, 1.00, 0.07, 2.00, 1.62, 7.57, repro,
2008-05-28,-0.70, -0.22, -6.95, 2.00, 1.62, 7.58, repro,
2008-05-29,1.32, 0.91, 2.02, 2.03, 1.66, 7.60, repro,
2008-05-30,1.11, 1.46, -0.73, 2.00, 1.66, 7.70, repro,
2008-05-31,0.79, 1.80, -4.07, 1.96, 1.60, 7.48, repro,
2008-06-01,0.85, 0.70, -2.92, 1.98, 1.62, 7.55, repro,
2008-06-02,0.38, 1.82, -3.00, 2.01, 1.62, 7.62, repro,
2008-06-03,0.91, 1.59, -0.80, 2.04, 1.68, 7.82, repro,
2008-06-04,0.56, 1.02, 12.55, 2.01, 1.62, 7.55, repro,
2008-06-05,0.05, 1.49, -0.19, 1.99, 1.59, 7.51, repro,
2008-06-06,1.10, 1.01, 1.95, 2.00, 1.63, 7.64, repro,
2008-06-07,-0.61, 1.44, 2.60, 2.05, 1.69, 7.78, repro,
2008-06-08,1.38, 0.38, 4.49, 2.02, 1.65, 7.61, repro,
2008-06-09,0.46, 1.71, -1.16, 2.02, 1.64, 7.53, repro,
2008-06-10,0.27, 0.74, -2.55, 2.02, 1.61, 7.59, repro,
2008-06-11,0.56, 0.81, -3.39, 1.99, 1.60, 7.49, repro,
2008-06-12,0.38, 1.52, 1.29, 1.99, 1.63, 7.54, repro,
2008-06-13,0.29, 1.44, -0.58, 2.00, 1.62, 7.56, repro,
2008-06-14,0.13, 1.49, -0.06, 2.06, 1.64, 7.64, repro,
2008-06-15,0.33, 1.10, -1.02, 2.04, 1.62, 7.54, repro,
2008-06-16,0.21, 1.84, -2.24, 1.99, 1.60, 7.44, repro,
2008-06-17,-0.80, 1.25, 2.14, 1.98, 1.59, 7.42, repro,
2008-06-18,0.67, 2.88, 1.34, 2.05, 1.66, 7.74, repro,
2008-06-19,0.51, 1.70, 2.07, 2.08, 1.73, 7.97, repro,
2008-06-20,0.78, 2.06, 0.26, 1.98, 1.60, 7.45, repro,
2008-06-21,0.47, 2.49, -7.25, 1.99, 1.60, 7.52, repro,
2008-06-22,-1.19, 2.09, 7.21, 2.00, 1.59, 7.45, repro,
2008-06-23,0.55, 1.21, 5.59, 2.04, 1.66, 7.73, repro,
2008-06-24,0.34, 2.33, 0.73, 2.04, 1.65, 7.68, repro,
2008-06-25,-0.48, 2.69, 2.78, 2.02, 1.61, 7.60, repro,
2008-06-26,1.85, 1.72, 3.95, 2.04, 1.68, 7.70, repro,
2008-06-27,0.80, 1.44, 0.61, 1.96, 1.57, 7.34, repro,
2008-06-28,1.47, 0.73, 1.14, 2.03, 1.65, 7.65, repro,
2008-06-29,-0.28, 1.88, -6.68, 2.03, 1.67, 7.63, repro,
2008-06-30,-0.75, 1.58, -10.32, 2.01, 1.59, 7.53, repro,
2008-07-01,0.56, 1.52, 1.67, 2.02, 1.66, 7.56, repro,
2008-07-02,0.54, 0.97, -1.11, 1.97, 1.59, 7.32, repro,
2008-07-03,0.15, 1.11, 3.88, 1.98, 1.58, 7.38, repro,
2008-07-04,0.53, 2.08, -1.24, 2.01, 1.60, 7.57, repro,
2008-07-05,0.08, 1.52, 4.65, 2.01, 1.60, 7.54, repro,
2008-07-06,-0.28, 2.17, 2.92, 1.99, 1.59, 7.42, repro,
2008-07-07,0.36, 1.21, 4.85, 2.02, 1.66, 7.61, repro,
2008-07-08,0.43, 0.67, 4.24, 2.01, 1.62, 7.50, repro,
2008-07-09,0.82, 1.57, 10.54, 1.99, 1.58, 7.42, repro,
2008-07-10,-0.64, 1.91, 5.16, 2.08, 1.63, 7.69, repro,
2008-07-11,0.30, 1.65, 3.59, 2.07, 1.62, 7.56, repro,
2008-07-12,-0.48, 2.16, 4.36, 2.01, 1.61, 7.55, repro,
2008-07-13,0.89, 0.28, 7.00, 2.01, 1.66, 7.52, repro,
2008-07-14,0.80, 2.42, 4.26, 2.05, 1.73, 7.75, repro,
2008-07-15,1.20, 1.16, 3.42, 1.98, 1.59, 7.41, repro,
2008-07-16,0.93, 0.74, 5.36, 2.01, 1.61, 7.56, repro,
2008-07-17,-1.19, 1.55, 10.55, 2.01, 1.61, 7.57, repro,
2008-07-18,0.18, 0.71, 8.17, 2.11, 1.62, 7.81, repro,
2008-07-19,-0.60, 1.04, 4.78, 2.07, 1.61, 7.74, repro,
2008-07-20,1.02, 2.98, 5.30, 2.00, 1.60, 7.49, repro,
2008-07-21,-1.24, 0.86, 9.08, 2.02, 1.62, 7.55, repro,
2008-07-22,-0.94, 0.57, 5.69, 2.01, 1.60, 7.51, repro,
2008-07-23,-0.65, 1.82, 6.38, 2.04, 1.59, 7.55, repro,
2008-07-24,-0.41, 1.80, 5.40, 2.01, 1.62, 7.56, repro,
2008-07-25,-0.72, 1.48, 3.87, 1.99, 1.60, 7.51, repro,
2008-07-26,1.18, -0.10, 10.05, 1.99, 1.59, 7.47, repro,
2008-07-27,0.57, 1.31, 7.94, 1.98, 1.58, 7.43, repro,
2008-07-28,0.84, 0.93, 10.34, 2.06, 1.62, 7.63, repro,
2008-07-29,-1.53, 0.38, 10.42, 2.05, 1.59, 7.70, repro,
2008-07-30,1.57, 0.89, 14.13, 2.07, 1.63, 7.91, repro,
2008-07-31,0.63, 1.97, 9.05, 1.98, 1.60, 7.55, repro,
2008-08-01,-0.38, 0.93, 6.56, 1.98, 1.58, 7.38, repro,
2008-08-02,0.85, 0.81, 6.81, 2.00, 1.59, 7.51, repro,
2008-08-03,-0.69, 0.60, 7.22, 2.02, 1.62, 7.47, repro,
2008-08-04,-0.66, 1.03, 7.31, 1.97, 1.58, 7.36, repro,
2008-08-05,1.66, 0.87, 11.03, 1.98, 1.58, 7.43, repro,
2008-08-06,0.07, 1.28, 3.50, 2.03, 1.61, 7.66, repro,
2008-08-07,-1.08, 0.83, 12.58, 2.09, 1.65, 7.68, repro,
2008-08-08,0.34, 1.80, 5.40, 2.11, 1.67, 7.87, repro,
2008-08-09,0.77, -0.93, 5.76, 2.06, 1.61, 7.62, repro,
2008-08-10,2.72, 1.33, -4.75, 2.06, 1.61, 7.71, repro,
2008-08-11,0.94, 1.62, 6.86, 2.05, 1.59, 7.64, repro,
2008-08-12,0.08, 0.77, 8.73, 2.04, 1.60, 7.62, repro,
2008-08-13,0.07, -0.25, 8.04, 2.05, 1.60, 7.64, repro,
2008-08-14,0.55, 1.26, 8.20, 2.04, 1.59, 7.59, repro,
2008-08-15,1.95, 1.15, 1.47, 2.06, 1.62, 7.69, repro,
2008-08-16,-0.31, 0.70, 8.12, 2.02, 1.60, 7.56, repro,
2008-08-17,0.47, 0.68, 8.03, 2.05, 1.60, 7.65, repro,
2008-08-18,0.81, 0.79, 7.58, 2.05, 1.61, 7.70, repro,
2008-08-19,0.69, 1.46, 2.82, 2.04, 1.59, 7.62, repro,
2008-08-20,0.72, -0.43, 6.81, 2.06, 1.62, 7.75, repro,
2008-08-21,2.11, 0.80, 6.77, 2.03, 1.60, 7.59, repro,
2008-08-22,0.55, 0.79, 9.66, 2.04, 1.59, 7.62, repro,
2008-08-23,0.57, 0.11, 3.59, 2.04, 1.59, 7.59, repro,
2008-08-24,0.91, -0.28, 3.15, 2.07, 1.67, 7.97, repro,
2008-08-25,1.73, 0.44, -1.07, 2.05, 1.62, 7.68, repro,
2008-08-26,1.30, 0.03, 11.99, 2.06, 1.62, 7.70, repro,
2008-08-27,1.00, 0.29, 7.76, 2.08, 1.66, 7.83, repro,
2008-08-28,-0.19, -0.88, 10.70, 2.17, 1.70, 8.09, repro,
2008-08-29,0.15, -0.68, 2.81, 2.10, 1.64, 7.79, repro,
2008-08-30,-0.36, -0.10, 9.77, 2.07, 1.65, 7.84, repro,
2008-08-31,0.17, 0.45, 5.41, 2.09, 1.64, 7.84, repro,
2008-09-01,0.87, -0.31, -2.71, 2.07, 1.64, 7.72, repro,
2008-09-02,1.41, 1.62, -6.18, 2.08, 1.65, 7.80, repro,
2008-09-03,0.83, 0.40, 1.18, 2.06, 1.63, 7.71, repro,
2008-09-04,0.15, 0.47, 7.89, 2.16, 1.74, 8.21, repro,
2008-09-05,-0.19, -0.47, 0.51, 2.15, 1.68, 7.98, repro,
2008-09-06,-0.02, 0.48, 3.41, 2.07, 1.63, 7.73, repro,
2008-09-07,-0.29, 0.28, 4.28, 2.09, 1.67, 7.96, repro,
2008-09-08,-0.00, 0.35, 3.04, 2.10, 1.67, 7.90, repro,
2008-09-09,0.27, 1.46, 3.74, 2.12, 1.64, 7.82, repro,
2008-09-10,0.79, 0.85, -3.48, 2.43, 1.82, 8.82, repro,
2008-09-11,1.05, -0.20, 3.27, 2.17, 1.74, 8.35, repro,
2008-09-12,0.49, -0.67, 6.46, 2.20, 1.81, 8.30, repro,
2008-09-13,1.05, 0.27, 4.61, 2.18, 1.76, 8.38, repro,
2008-09-14,-0.41, -0.17, 1.91, 2.13, 1.70, 8.19, repro,
2008-09-15,0.09, 1.54, 2.00, 2.14, 1.73, 8.16, repro,
2008-09-16,1.91, -0.56, -6.24, 2.10, 1.68, 7.87, repro,
2008-09-17,0.93, 0.16, -0.28, 2.19, 1.76, 8.30, repro,
2008-09-18,1.75, 0.36, 2.46, 2.13, 1.65, 8.04, repro,
2008-09-19,-0.28, 0.32, 3.41, 2.08, 1.69, 7.94, repro,
2008-09-20,1.65, 1.22, 0.68, 2.16, 1.72, 8.32, repro,
2008-09-21,1.74, 0.81, 7.30, 2.17, 1.70, 8.29, repro,
2008-09-22,-1.11, 0.42, 7.43, 2.11, 1.68, 8.06, repro,
2008-09-23,0.28, -1.56, 13.60, 2.11, 1.67, 7.96, repro,
2008-09-24,-0.30, 1.00, 5.11, 2.17, 1.73, 8.32, repro,
2008-09-25,-1.97, 0.64, 2.69, 2.11, 1.66, 7.98, repro,
2008-09-26,0.24, -0.01, 1.91, 2.11, 1.64, 7.95, repro,
2008-09-27,0.03, -0.56, 9.56, 2.17, 1.70, 8.21, repro,
2008-09-28,-0.94, 0.39, 5.78, 2.51, 2.26, 10.09, repro,
2008-09-29,0.01, 0.15, -2.02, 2.17, 1.71, 8.15, repro,
2008-09-30,-0.59, -1.46, 4.41, 2.21, 1.79, 8.56, repro,
2008-10-01,-0.76, 1.02, -0.58, 2.09, 1.66, 7.91, repro,
2008-10-02,0.07, -1.01, 0.40, 2.17, 1.73, 8.36, repro,
2008-10-03,0.57, 1.45, 5.46, 2.24, 1.88, 8.87, repro,
2008-10-04,-0.79, -0.09, 7.48, 2.19, 1.79, 8.62, repro,
2008-10-05,2.02, -0.03, -4.13, 2.29, 1.95, 9.30, repro,
2008-10-06,1.23, 1.49, 0.42, 2.23, 1.79, 8.63, repro,
2008-10-07,2.24, 0.90, 0.37, 2.21, 1.80, 8.68, repro,
2008-10-08,1.79, 0.40, 1.22, 2.16, 1.81, 8.51, repro,
2008-10-09,0.16, 0.65, -1.50, 2.13, 1.79, 8.43, repro,
2008-10-10,0.94, 1.08, -0.60, 2.16, 1.80, 8.66, repro,
2008-10-11,0.28, 0.29, -3.10, 2.36, 2.02, 9.78, repro,
2008-10-12,0.25, 0.45, -0.42, 2.38, 1.96, 9.73, repro,
2008-10-13,0.69, 1.04, 2.01, 2.30, 1.96, 9.47, repro,
2008-10-14,0.04, 1.00, -1.55, 2.25, 1.90, 9.29, repro,
2008-10-15,1.33, 0.57, 0.08, 2.25, 1.83, 8.98, repro,
2008-10-16,0.61, 1.91, 0.47, 2.35, 1.97, 9.39, repro,
2008-10-17,1.83, -0.67, -8.29, 2.25, 1.84, 8.78, repro,
2008-10-18,-0.09, 1.87, -2.56, 2.62, 2.39, 10.80, repro,
2008-10-19,-0.25, 0.53, -0.07, 2.28, 1.99, 9.51, repro,
2008-10-20,-0.41, 0.07, -1.76, 2.36, 2.13, 10.12, repro,
2008-10-21,-1.05, 3.06, -8.80, 2.57, 2.31, 11.17, repro,
2008-10-22,-1.46, 1.13, -2.78, 2.31, 2.02, 9.76, repro,
2008-10-23,1.59, 1.43, -2.56, 2.32, 2.05, 9.63, repro,
2008-10-24,0.62, 0.08, 1.14, 2.29, 1.93, 9.29, repro,
2008-10-25,2.56, 0.61, -0.93, 2.33, 2.03, 9.58, repro,
2008-10-26,1.13, 0.12, -4.02, 2.15, 1.78, 8.46, repro,
2008-10-27,0.18, 0.61, -8.28, 2.24, 1.92, 9.02, repro,
2008-10-28,-0.30, 1.99, 1.09, 2.30, 1.91, 9.28, repro,
2008-10-29,1.52, 0.49, 0.54, 2.45, 2.10, 9.75, repro,
2008-10-30,2.62, -0.32, -3.53, 2.32, 1.81, 8.52, repro,
2008-10-31,0.50, 0.41, -5.84, 2.09, 1.65, 7.81, repro,
2008-11-01,-0.29, -0.65, -9.60, 2.03, 1.63, 7.66, repro,
2008-11-02,-0.40, -0.69, -3.08, 2.06, 1.66, 7.79, repro,
2008-11-03,1.37, -0.26, 1.05, 2.02, 1.60, 7.53, repro,
2008-11-04,0.84, 0.00, -4.90, 1.99, 1.59, 7.46, repro,
2008-11-05,1.64, -0.97, 4.09, 2.02, 1.63, 7.65, repro,
2008-11-06,0.06, 0.77, -4.67, 2.01, 1.63, 7.62, repro,
2008-11-07,1.44, 1.00, -2.79, 2.02, 1.66, 7.63, repro,
2008-11-08,-0.22, 0.13, -1.54, 2.04, 1.65, 7.71, repro,
2008-11-09,-0.43, 0.40, 3.72, 2.02, 1.65, 7.61, repro,
2008-11-10,1.15, -0.11, 4.72, 2.02, 1.66, 7.68, repro,
2008-11-11,2.84, -0.56, -2.63, 2.03, 1.68, 7.79, repro,
2008-11-12,2.63, 0.62, -7.43, 2.02, 1.60, 7.62, repro,
2008-11-13,1.25, 4.67, 8.66, 2.03, 1.63, 7.56, repro,
2008-11-14,-0.57, 0.13, 6.29, 2.09, 1.70, 7.87, repro,
2008-11-15,0.65, -0.13, -4.76, 2.08, 1.68, 7.73, repro,
2008-11-16,1.46, 0.11, 1.61, 2.16, 1.78, 8.10, repro,
2008-11-17,0.98, 0.47, -3.48, 2.08, 1.70, 7.74, repro,
2008-11-18,0.85, -0.09, -0.68, 2.05, 1.73, 7.79, repro,
2008-11-19,1.07, 0.50, -7.26, 2.05, 1.71, 7.77, repro,
2008-11-20,0.26, 0.41, -2.13, 2.08, 1.71, 7.77, repro,
2008-11-21,1.14, 1.03, -0.62, 2.18, 1.85, 8.47, repro,
2008-11-22,2.09, 0.54, -4.11, 2.16, 1.85, 8.31, repro,
2008-11-23,1.91, -0.10, -3.10, 2.14, 1.73, 7.94, repro,
2008-11-24,1.42, -0.96, -0.18, 2.16, 1.79, 8.04, repro,
2008-11-25,1.33, 0.02, -5.60, 2.02, 1.64, 7.70, repro,
2008-11-26,1.04, 0.79, 0.16, 1.99, 1.60, 7.54, repro,
2008-11-27,0.76, 0.30, -1.73, 2.03, 1.69, 7.73, repro,
2008-11-28,1.47, -0.82, -3.84, 2.11, 1.77, 8.02, repro,
2008-11-29,0.95, 0.44, -6.25, 2.09, 1.78, 7.92, repro,
2008-11-30,0.72, 0.45, 1.47, 2.01, 1.63, 7.64, repro,
2008-12-01,1.81, 1.20, -1.76, 2.01, 1.59, 7.51, repro,
2008-12-02,0.80, 0.68, -0.81, 2.05, 1.67, 7.66, repro,
2008-12-03,0.12, 0.11, -3.60, 2.09, 1.71, 7.80, repro,
2008-12-04,0.76, -0.23, -2.13, 2.04, 1.71, 7.80, repro,
2008-12-05,1.07, -0.63, 1.09, 2.07, 1.68, 7.70, repro,
2008-12-06,2.43, 0.05, -5.24, 2.11, 1.80, 8.05, repro,
2008-12-07,1.42, 1.31, -2.25, 2.06, 1.72, 7.86, repro,
2008-12-08,0.80, -0.08, 4.63, 2.05, 1.69, 7.82, repro,
2008-12-09,0.50, 1.10, -3.69, 2.00, 1.61, 7.54, repro,
2008-12-10,2.27, 1.12, -11.93, 2.01, 1.62, 7.65, repro,
2008-12-11,1.49, 0.52, -2.66, 2.11, 1.67, 7.81, repro,
2008-12-12,-0.15, 0.41, 3.20, 2.10, 1.68, 7.83, repro,
2008-12-13,-0.69, 0.84, 3.86, 2.02, 1.62, 7.56, repro,
2008-12-14,1.54, 1.13, 9.07, 2.00, 1.59, 7.50, repro,
2008-12-15,1.30, -0.51, 0.54, 2.07, 1.70, 7.74, repro,
2008-12-16,0.82, -0.22, -0.99, 1.96, 1.56, 7.30, repro,
2008-12-17,1.89, 0.02, -0.90, 2.03, 1.57, 7.49, repro,
2008-12-18,1.79, 1.93, -0.21, 1.99, 1.58, 7.43, repro,
2008-12-19,1.54, 1.07, -1.81, 2.06, 1.60, 7.76, repro,
2008-12-20,1.92, 1.47, -4.40, 2.02, 1.65, 7.58, repro,
2008-12-21,0.79, 1.45, -5.00, 2.03, 1.64, 7.65, repro,
2008-12-22,0.78, 0.78, -0.09, 1.98, 1.58, 7.45, repro,
2008-12-23,1.53, 0.87, -3.49, 2.01, 1.59, 7.55, repro,
2008-12-24,1.26, 0.88, 0.92, 1.99, 1.59, 7.51, repro,
2008-12-25,-0.57, 0.85, 7.20, 2.01, 1.60, 7.58, repro,
2008-12-26,2.11, 1.47, -3.35, 1.97, 1.58, 7.42, repro,
2008-12-27,3.21, 1.71, -7.22, 1.97, 1.57, 7.38, repro,
2008-12-28,0.37, 0.91, -0.66, 1.97, 1.57, 7.38, repro,
2008-12-29,0.80, 1.57, -1.62, 2.00, 1.58, 7.47, repro,
2008-12-30,0.02, 0.68, -7.70, 1.98, 1.58, 7.44, repro,
2008-12-31,0.09, 1.09, -6.33, 1.97, 1.57, 7.39, repro,
2009-01-01,1.36, 0.47, -6.02, 1.98, 1.57, 7.39, repro,
2009-01-02,1.57, 1.24, -4.35, 1.99, 1.58, 7.43, repro,
2009-01-03,0.42, 0.32, 1.66, 2.00, 1.57, 7.47, repro,
2009-01-04,0.09, 0.25, -4.26, 1.99, 1.58, 7.44, repro,
2009-01-05,0.51, 0.18, -4.32, 1.96, 1.57, 7.33, repro,
2009-01-06,2.24, 1.75, -3.79, 2.00, 1.65, 7.58, repro,
2009-01-07,1.30, 0.96, -11.70, 2.01, 1.58, 7.60, repro,
2009-01-08,1.84, 1.12, -4.36, 2.04, 1.65, 7.80, repro,
2009-01-09,0.03, -0.19, -8.61, 2.01, 1.61, 7.60, repro,
2009-01-10,2.51, 1.99, -9.47, 1.97, 1.59, 7.48, repro,
2009-01-11,0.73, 1.46, -10.58, 2.01, 1.60, 7.57, repro,
2009-01-12,1.44, 1.22, -7.60, 1.98, 1.59, 7.44, repro,
2009-01-13,1.07, 1.25, -13.01, 1.99, 1.59, 7.48, repro,
2009-01-14,-0.04, 1.92, -7.31, 1.99, 1.60, 7.56, repro,
2009-01-15,0.01, 0.34, -8.81, 1.98, 1.59, 7.43, repro,
2009-01-16,0.95, 0.76, -5.66, 1.96, 1.59, 7.41, repro,
2009-01-17,1.77, 0.89, -1.85, 2.04, 1.70, 7.85, repro,
2009-01-18,0.92, 1.14, -4.58, 1.96, 1.60, 7.48, repro,
2009-01-19,-0.15, 1.40, -9.99, 1.98, 1.59, 7.45, repro,
2009-01-20,0.18, 1.40, -4.66, 1.97, 1.58, 7.40, repro,
2009-01-21,-1.07, 0.29, -0.69, 1.98, 1.60, 7.50, repro,
2009-01-22,1.86, 1.37, -3.22, 1.96, 1.59, 7.41, repro,
2009-01-23,0.86, 1.06, -4.97, 1.96, 1.59, 7.37, repro,
2009-01-24,0.85, 0.92, -8.57, 1.96, 1.57, 7.34, repro,
2009-01-25,0.88, 2.12, -10.28, 1.96, 1.58, 7.40, repro,
2009-01-26,-0.69, 0.96, -6.87, 1.96, 1.58, 7.37, repro,
2009-01-27,0.42, 1.24, -5.22, 2.03, 1.66, 7.76, repro,
2009-01-28,0.51, 2.66, -12.98, 1.96, 1.59, 7.38, repro,
2009-01-29,1.45, 3.74, -7.53, 1.97, 1.59, 7.41, repro,
2009-01-30,1.12, 2.07, -6.51, 1.98, 1.59, 7.45, repro,
2009-01-31,1.51, 2.15, -5.99, 1.97, 1.59, 7.41, repro,
2009-02-01,0.43, 1.74, -3.70, 1.98, 1.59, 7.41, repro,
2009-02-02,1.03, 1.30, -5.38, 1.95, 1.58, 7.30, repro,
2009-02-03,1.32, 1.74, -5.34, 1.96, 1.60, 7.41, repro,
2009-02-04,0.01, 0.88, 2.91, 1.96, 1.59, 7.37, repro,
2009-02-05,-1.09, -1.33, -1.67, 2.00, 1.64, 7.63, repro,
2009-02-06,-0.95, -0.93, -0.69, 2.04, 1.68, 7.77, repro,
2009-02-07,-0.02, 0.25, 0.74, 1.99, 1.64, 7.55, repro,
2009-02-08,0.79, -0.47, -2.69, 1.97, 1.60, 7.39, repro,
2009-02-09,1.54, 1.35, -4.59, 1.99, 1.64, 7.54, repro,
2009-02-10,0.75, 0.43, -4.26, 1.97, 1.60, 7.42, repro,
2009-02-11,0.01, 1.13, -0.54, 2.04, 1.70, 7.86, repro,
2009-02-12,0.36, 0.41, -4.82, 2.01, 1.65, 7.58, repro,
2009-02-13,1.06, 1.14, -3.75, 1.98, 1.64, 7.53, repro,
2009-02-14,-0.11, 0.50, 0.64, 1.96, 1.60, 7.41, repro,
2009-02-15,-2.83, -1.11, -2.31, 2.02, 1.66, 7.74, repro,
2009-02-16,-0.49, -1.32, -1.76, 1.97, 1.60, 7.42, repro,
2009-02-17,-1.49, -1.12, -1.79, 2.02, 1.61, 7.57, repro,
2009-02-18,1.54, 1.72, -3.01, 1.99, 1.63, 7.62, repro,
2009-02-19,1.82, 0.61, -2.73, 1.98, 1.63, 7.53, repro,
2009-02-20,0.70, 0.45, -6.59, 1.99, 1.64, 7.61, repro,
2009-02-21,0.69, 1.03, -4.17, 1.98, 1.64, 7.61, repro,
2009-02-22,0.37, 0.61, -6.52, 1.97, 1.62, 7.49, repro,
2009-02-23,1.37, 0.62, -9.74, 2.02, 1.67, 7.72, repro,
2009-02-24,0.97, -0.16, -4.14, 2.06, 1.74, 7.92, repro,
2009-02-25,0.90, 0.75, -9.82, 194.36, 79.95, 183.51, repro,
2009-02-26,0.84, -0.09, -3.36, 2.04, 1.73, 7.94, repro,
2009-02-27,0.72, 1.16, -8.00, 2.11, 1.75, 8.32, repro,
2009-02-28,0.89, 0.85, -8.33, 2.01, 1.68, 7.70, repro,
2009-03-01,0.08, 0.53, -2.73, 2.02, 1.68, 7.72, repro,
2009-03-02,-0.10, -0.95, 0.68, 2.03, 1.70, 7.77, repro,
2009-03-03,-1.92, -0.53, -2.50, 2.05, 1.73, 7.87, repro,
2009-03-04,0.45, 0.00, 0.83, 1.99, 1.66, 7.66, repro,
2009-03-05,3.03, 1.22, -4.93, 2.03, 1.70, 7.82, repro,
2009-03-06,0.57, 0.95, 1.20, 2.08, 1.79, 8.14, repro,
2009-03-07,1.77, 1.01, -2.86, 1.99, 1.65, 7.52, repro,
2009-03-08,0.28, -0.13, -2.32, 2.00, 1.64, 7.56, repro,
2009-03-09,3.09, 0.78, 0.70, 2.01, 1.66, 7.68, repro,
2009-03-10,1.35, 0.56, -1.11, 2.03, 1.69, 7.78, repro,
2009-03-11,2.30, 0.90, -1.05, 2.01, 1.67, 7.66, repro,
2009-03-12,0.28, -0.54, -6.85, 2.01, 1.66, 7.66, repro,
2009-03-13,-0.48, -0.81, -3.15, 1.99, 1.65, 7.57, repro,
2009-03-14,0.28, -1.52, 1.05, 2.02, 1.69, 7.70, repro,
2009-03-15,1.69, -1.16, 3.88, 1.97, 1.64, 7.54, repro,
2009-03-16,0.95, 0.20, -5.68, 2.00, 1.65, 7.61, repro,
2009-03-17,-0.04, 0.02, 2.41, 2.03, 1.65, 7.49, repro,
2009-03-18,2.05, 1.24, -9.09, 1.97, 1.61, 7.31, repro,
2009-03-19,-0.57, 0.09, -1.24, 1.95, 1.60, 7.26, repro,
2009-03-20,-0.56, -0.01, 1.92, 1.97, 1.61, 7.40, repro,
2009-03-21,1.31, 0.28, 1.01, 1.98, 1.64, 7.45, repro,
2009-03-22,-1.35, -0.45, 1.64, 1.97, 1.63, 7.43, repro,
2009-03-23,1.69, 0.60, -3.24, 1.98, 1.62, 7.43, repro,
2009-03-24,1.68, 1.10, -2.16, 1.98, 1.62, 7.47, repro,
2009-03-25,1.36, 0.61, -2.70, 1.96, 1.61, 7.38, repro,
2009-03-26,1.67, -0.24, 1.53, 1.98, 1.62, 7.44, repro,
2009-03-27,0.93, -0.57, 2.10, 2.04, 1.66, 7.67, repro,
2009-03-28,1.22, -0.15, 1.50, 2.03, 1.63, 7.54, repro,
2009-03-29,1.40, 0.52, 0.47, 2.05, 1.67, 7.74, repro,
2009-03-30,1.07, 0.56, 6.95, 2.02, 1.63, 7.53, repro,
2009-03-31,1.41, 1.05, -4.52, 2.00, 1.62, 7.44, repro,
2009-04-01,2.27, 0.60, -1.92, 2.00, 1.62, 7.44, repro,
2009-04-02,1.97, -0.41, -0.70, 2.08, 1.67, 7.71, repro,
2009-04-03,1.30, -1.62, -8.96, 2.08, 1.68, 7.77, repro,
2009-04-04,0.12, 0.14, -5.37, 2.02, 1.62, 7.51, repro,
2009-04-05,0.38, 1.49, -10.01, 2.02, 1.62, 7.46, repro,
2009-04-06,0.18, 0.80, -6.28, 2.01, 1.61, 7.45, repro,
2009-04-07,2.25, -0.46, -10.46, 2.02, 1.62, 7.51, repro,
2009-04-08,-1.53, 0.02, -23.90, 2.02, 1.61, 7.46, repro,
2009-04-09,0.23, -0.21, -11.83, 2.08, 1.65, 7.65, repro,
2009-04-10,-0.44, -0.48, -0.60, 2.04, 1.63, 7.56, repro,
2009-04-11,0.23, 0.09, -8.37, 2.07, 1.64, 7.52, repro,
2009-04-12,1.50, 0.31, -2.10, 2.06, 1.63, 7.56, repro,
2009-04-13,-0.16, 0.65, -5.40, 2.05, 1.63, 7.44, repro,
2009-04-14,0.13, 0.08, -3.65, 2.05, 1.62, 7.51, repro,
2009-04-15,0.25, 0.68, 1.27, 2.09, 1.65, 7.60, repro,
2009-04-16,0.11, 0.45, -2.43, 2.04, 1.62, 7.42, repro,